Flag for Canada Weather past 2 weeks in Thompson, Manitoba, Canada

Now
10 °F

Light snow. Partly sunny.


Feels Like: -2 °F
Forecast: -7 / 10 °F
Wind: 8 mph from Northwest

Location: Thompson

Current Time: Feb 27, 2015 at 7:12:57 PM

Latest Report: Feb 27, 2015 at 6:00 PM


Visibility: 15 mi

Pressure: 30.09 "Hg

Humidity: 61%

Dew point: 0 °F

Location of ThompsonLocation

Historic Weather in Thompson — Graph

°F

Thompson temperature yesterday

Maximum temperature yesterday: 14 °F (at 3:00 PM)
Minimum temperature yesterday: -8 °F (at 3:00 AM)
Average temperature yesterday: 2 °F

Past Weeks' High & Low Weather Summary

 TemperatureHumidityPressure
High21 °F (Feb 23, 3:00 PM)85% (Feb 20, 4:00 AM)30.90 "Hg (Feb 20, 4:00 AM)
Low-40 °F (Feb 14, 6:00 AM)31% (Feb 26, 3:00 PM)29.50 "Hg (Feb 23, 1:00 PM)
Average-11 °F63%30.25 "Hg
* Reported Feb 12 6:00 PM — Feb 27 6:00 PM, Thompson, Weather by CustomWeather, © 2015

Note: Actual official high and low records may vary slightly from our data, if they occured in-between our weather recording intervals... More about our weather records

Advertising

Thompson weather history for previous 24 hours

 ConditionsComfort  
Time TempWeatherWind HumidityBarometerVisibility
6:00 PM
Fri, Feb 27
10 °FLight snow. Partly sunny.8 mph61%30.09 "Hg15 mi
5:00 PM12 °FLight snow. More clouds than sun.12 mph62%30.09 "Hg15 mi
4:00 PM12 °FLight snow. More clouds than sun.14 mph62%30.08 "Hg15 mi
3:00 PM12 °FLight snow. More clouds than sun.12 mph57%30.07 "Hg15 mi
2:00 PM12 °FLight snow. Partly sunny.14 mph57%30.07 "Hg15 mi
1:00 PM12 °FLight snow. Mostly cloudy.15 mph57%30.07 "Hg12 mi
12:00 PM10 °FLight snow. Mostly cloudy.12 mph61%30.07 "Hg12 mi
11:00 AM9 °FLight snow. Overcast.9 mph66%30.07 "Hg12 mi
10:00 AM9 °FLight snow. Overcast.8 mph66%30.06 "Hg12 mi
9:00 AM3 °FLight snow. Partly sunny.5 mph72%30.05 "Hg15 mi
8:00 AM1 °FPartly sunny.7 mph71%30.04 "Hg15 mi
7:00 AM3 °FPassing clouds.9 mph66%30.04 "Hg15 mi
6:00 AM3 °FPassing clouds.8 mph66%30.04 "Hg15 mi
5:00 AM1 °FPassing clouds.7 mph60%30.04 "Hg15 mi
4:00 AM5 °FPassing clouds.10 mph55%30.04 "Hg15 mi
3:00 AM7 °FPassing clouds.12 mph51%30.06 "Hg15 mi
2:00 AM7 °FPartly cloudy.14 mph47%30.08 "Hg15 mi
1:00 AM7 °FPassing clouds.12 mph47%30.10 "Hg15 mi
12:00 AM7 °FPassing clouds.13 mph47%30.15 "Hg15 mi
11:00 PM
Thu, Feb 26
9 °FPassing clouds.15 mph43%30.17 "Hg15 mi
10:00 PM7 °FPassing clouds.10 mph47%30.19 "Hg15 mi
9:00 PM5 °FPassing clouds.8 mph51%30.24 "Hg15 mi
8:00 PM7 °FPassing clouds.8 mph43%30.27 "Hg15 mi
7:00 PM5 °FPassing clouds.8 mph46%30.30 "Hg15 mi
Weather by CustomWeather, © 2015

See weather overviewHow to use our weather pages